OE5RPP Weather Reports


Display with metric or nautical units.
time (UTC)temp
F
wind
direction
speed
MPH
gust
MPH
rain 1hr
in
rain 24hr
in
rain mn
in
humidity
%
barometer
mb
20260507150158 58 180 3.0 3.0 0.00 0.00 0.00 41 1016.9
20260507145158 57 202 2.0 4.0 0.00 0.00 0.00 40 1016.9
20260507144159 56 180 1.0 0.0 0.00 0.00 0.00 39 1016.9
20260507143158 55 180 6.0 5.0 0.00 0.00 0.00 37 1016.9
20260507142158 55 202 6.0 4.0 0.00 0.00 0.00 37 1016.9
20260507141157 55 292 6.0 6.0 0.00 0.00 0.00 35 1016.9
20260507140159 58 270 8.0 8.0 0.00 0.00 0.00 23 1016.9
20260507135159 62 292 5.0 8.0 0.00 0.00 0.00 22 1016.9
20260507134158 64 225 2.0 0.0 0.00 0.00 0.00 21 1016.9
20260507133157 63 225 4.0 6.0 0.00 0.00 0.00 21 1016.9
20260507132159 63 247 4.0 3.0 0.00 0.00 0.00 21 1016.9
20260507131159 62 180 4.0 3.0 0.00 0.00 0.00 22 1016.9
20260507130158 61 270 2.0 4.0 0.00 0.00 0.00 22 1016.9
20260507125158 60 247 5.0 4.0 0.00 0.00 0.00 22 1016.9
20260507124157 60 270 4.0 4.0 0.00 0.00 0.00 22 1016.9
20260507123159 58 270 5.0 5.0 0.00 0.00 0.00 23 1016.9
20260507122159 58 247 6.0 5.0 0.00 0.00 0.00 23 1016.9
20260507121159 60 270 6.0 5.0 0.00 0.00 0.00 22 1016.9
20260507120158 60 247 5.0 5.0 0.00 0.00 0.00 22 1016.9
20260507115158 61 270 7.0 7.0 0.00 0.00 0.00 22 1016.9
20260507114159 61 180 2.0 0.0 0.00 0.00 0.00 22 1016.9
20260507113158 62 247 9.0 11.0 0.00 0.00 0.00 22 1016.9
20260507112156 62 247 4.0 5.0 0.00 0.00 0.00 22 1016.9
20260507111158 61 270 4.0 3.0 0.00 0.00 0.00 22 1016.9
20260507110157 60 225 5.0 6.0 0.00 0.00 0.00 22 1016.9
20260507105157 60 292 6.0 3.0 0.00 0.00 0.00 22 1016.9
20260507104156 59 270 6.0 5.0 0.00 0.00 0.00 22 1016.9
20260507103158 58 315 5.0 7.0 0.00 0.00 0.00 23 1016.9
20260507102131 59 270 6.0 3.0 0.00 0.00 0.00 22 1016.9
20260507101131 58 270 2.0 3.0 0.00 0.00 0.00 23 1016.9
20260507100136 58 292 6.0 6.0 0.00 0.00 0.00 23 1016.9
20260507095132 59 180 4.0 4.0 0.00 0.00 0.00 22 1016.9
20260507094136 58 0 4.0 4.0 0.00 0.00 0.00 23 1016.9
20260507093131 57 247 9.0 4.0 0.00 0.00 0.00 23 1016.9
20260507092136 58 225 5.0 5.0 0.00 0.00 0.00 23 1016.9
20260507090132 57 270 6.0 3.0 0.00 0.00 0.00 23 1016.9
20260507085136 58 180 4.0 5.0 0.00 0.00 0.00 23 1016.9
20260507081135 58 292 3.0 3.0 0.00 0.00 0.00 23 1015.9
20260507074133 58 180 1.0 0.0 0.00 0.00 0.00 30 1015.9
20260507073133 58 202 5.0 6.0 0.00 0.00 0.00 32 1015.9
20260507072132 57 270 2.0 0.0 0.00 0.00 0.00 32 1015.9
20260507070131 51 180 4.0 5.0 0.00 0.16 0.00 60 1015.9
20260507063136 51 180 4.0 5.0 0.00 0.16 0.00 60 1015.9
20260507062134 51 180 4.0 5.0 0.00 0.16 0.00 60 1015.9
20260507060136 51 180 4.0 5.0 0.00 0.16 0.00 60 1015.9
20260507055132 51 180 4.0 5.0 0.00 0.16 0.00 60 1015.9
20260507052131 51 180 4.0 5.0 0.00 0.16 0.00 60 1015.9
20260507051136 51 180 5.0 4.0 0.00 0.16 0.00 60 1015.9
20260507050131 50 157 4.0 4.0 0.00 0.16 0.00 60 1014.9
20260507044130 50 180 0.0 0.0 0.00 0.16 0.00 60 1014.9
20260507043135 49 180 4.0 4.0 0.00 0.16 0.00 61 1014.9
20260507040132 49 180 6.0 5.0 0.00 0.16 0.00 62 1014.9
20260507035131 49 157 3.0 4.0 0.00 0.16 0.00 62 1014.9
20260507034134 49 180 5.0 6.0 0.00 0.16 0.00 63 1014.9
20260507033132 49 135 6.0 4.0 0.00 0.16 0.00 62 1014.9
20260507030131 48 202 4.0 5.0 0.00 0.16 0.00 63 1013.9
20260507025132 48 180 4.0 4.0 0.00 0.16 0.00 62 1013.9
20260507024132 48 180 6.0 5.0 0.00 0.16 0.00 62 1013.9
20260507022131 49 157 6.0 7.0 0.00 0.16 0.00 63 1013.9
20260507020136 48 157 6.0 6.0 0.00 0.16 0.00 62 1013.9
20260507015131 48 157 5.0 5.0 0.00 0.16 0.00 62 1013.9
20260507014131 49 157 0.0 0.0 0.00 0.16 0.00 62 1013.9
20260507012136 49 180 5.0 5.0 0.00 0.16 0.00 62 1013.9
20260507011131 49 157 4.0 4.0 0.00 0.16 0.00 62 1013.9
20260507010130 49 202 4.0 4.0 0.00 0.16 0.00 62 1013.9
20260507004136 49 225 3.0 4.0 0.00 0.16 0.00 62 1013.9
20260507003131 49 157 9.0 10.0 0.00 0.16 0.00 61 1013.9
20260507001132 49 180 5.0 5.0 0.00 0.16 0.00 61 1013.9
20260506234135 50 180 3.0 4.0 0.00 0.16 0.00 60 1013.9
20260506232131 50 157 5.0 4.0 0.00 0.16 0.00 60 1013.9
20260506230137 50 180 5.0 6.0 0.00 0.16 0.00 59 1013.9
20260506224132 51 180 5.0 3.0 0.00 0.16 0.00 59 1013.9
20260506222132 51 157 3.0 5.0 0.00 0.16 0.00 59 1013.9
20260506221132 51 180 4.0 4.0 0.00 0.16 0.00 58 1012.9
20260506220131 51 180 6.0 6.0 0.00 0.16 0.00 58 1012.9
20260506212135 51 180 4.0 4.0 0.00 0.12 0.12 58 1012.9
20260506211131 51 225 2.0 3.0 0.00 0.12 0.12 57 1012.9
20260506204132 52 247 5.0 7.0 0.00 0.08 0.08 57 1012.9
20260506202136 52 270 8.0 8.0 0.00 0.08 0.08 58 1012.9
20260506195132 53 180 11.0 12.0 0.08 0.08 0.08 60 1011.9
20260506194131 54 225 7.0 9.0 0.08 0.08 0.08 59 1011.9
20260506193131 54 247 9.0 12.0 0.04 0.04 0.04 59 1011.9
20260506190136 55 270 4.0 4.0 0.00 0.00 0.00 51 1010.9
20260506185131 56 247 5.0 5.0 0.00 0.00 0.00 48 1010.9
20260506183135 57 180 6.0 4.0 0.00 0.00 0.00 40 1009.9
20260506182132 58 225 4.0 3.0 0.00 0.00 0.00 39 1009.9
20260506180132 58 225 5.0 4.0 0.00 0.00 0.00 34 1008.9
20260506175134 58 135 6.0 4.0 0.00 0.00 0.00 32 1008.9
20260506174131 58 270 9.0 8.0 0.00 0.00 0.00 30 1007.9
20260506173131 59 270 10.0 14.0 0.00 0.00 0.00 30 1007.9
20260506165135 72 180 5.0 3.0 0.00 0.00 0.00 18 1004.9
20260506164132 75 180 9.0 6.0 0.00 0.00 0.00 18 1004.9
20260506163133 79 135 7.0 7.0 0.00 0.00 0.00 17 1004.9
20260506162136 79 135 6.0 6.0 0.00 0.00 0.00 17 1004.9
20260506161132 79 157 6.0 8.0 0.00 0.00 0.00 17 1004.9
20260506160131 78 90 4.0 4.0 0.00 0.00 0.00 17 1004.9
20260506155131 77 90 3.0 3.0 0.00 0.00 0.00 17 1004.9
20260506153132 75 135 3.0 3.0 0.00 0.00 0.00 18 1005.9
20260506151135 72 90 2.0 4.0 0.00 0.00 0.00 18 1005.9